This is the latest recevied weather packets stored in our database for station/object KC3AWA. If no packets are shown the sender has not sent any weather packets the latest 10 day(s).
| Time | Temp. | Humidity | Pressure | Rain* | Wind** | Luminosity | Snow |
|---|---|---|---|---|---|---|---|
| 1777735141 | 1.11° C | 95% | 1017.1 hPa | 0 mm | - | 160 W/m² | - |
| 1777734837 | 1.11° C | 94% | 1017.2 hPa | 0 mm | - | 150 W/m² | - |
| 1777734535 | 1.11° C | 95% | 1017.2 hPa | 0 mm | - | 129 W/m² | - |
| 1777734231 | 1.11° C | 94% | 1017.2 hPa | 0 mm | - | 141 W/m² | - |
| 1777733927 | 1.11° C | 94% | 1017.2 hPa | 1.78 mm | - | 132 W/m² | - |
| 1777733624 | 1.11° C | 94% | 1017.2 hPa | 1.78 mm | - | 185 W/m² | - |
| 1777733321 | 1.11° C | 94% | 1017 hPa | 0 mm | - | 163 W/m² | - |
| 1777733018 | 1.11° C | 94% | 1017.1 hPa | 0 mm | - | 168 W/m² | - |
| 1777732714 | 1.11° C | 94% | 1017.2 hPa | 1.27 mm | - | 184 W/m² | - |
| 1777732411 | 1.11° C | 94% | 1016.9 hPa | 1.27 mm | - | 217 W/m² | - |
| 1777732109 | 1.11° C | 94% | 1016.9 hPa | 1.78 mm | - | 145 W/m² | - |
| 1777731805 | 1.11° C | 94% | 1016.9 hPa | 1.78 mm | - | 113 W/m² | - |
| 1777731502 | 1.11° C | 94% | 1016.8 hPa | 1.78 mm | - | 112 W/m² | - |
| 1777731201 | 1.11° C | 93% | 1016.9 hPa | 1.78 mm | - | 131 W/m² | - |
| 1777730898 | 1.11° C | 93% | 1016.6 hPa | 0 mm | - | 107 W/m² | - |
| 1777730595 | 1.11° C | 93% | 1016.6 hPa | 0 mm | - | 79 W/m² | - |
| 1777730292 | 1.11° C | 93% | 1016.7 hPa | 0 mm | - | 74 W/m² | - |
| 1777729989 | 1.11° C | 93% | 1016.7 hPa | 0 mm | - | 72 W/m² | - |
| 1777729684 | 1.11° C | 93% | 1016.7 hPa | 0 mm | - | 58 W/m² | - |
| 1777729382 | 1.11° C | 92% | 1016.8 hPa | 0 mm | - | 55 W/m² | - |
| 1777729078 | 1.11° C | 91% | 1016.8 hPa | 0 mm | - | 59 W/m² | - |
| 1777728774 | 1.11° C | 91% | 1016.7 hPa | 0 mm | - | 59 W/m² | - |
| 1777728471 | 1.11° C | 90% | 1016.8 hPa | 0 mm | - | 53 W/m² | - |
| 1777728168 | 1.67° C | 89% | 1016.7 hPa | 0 mm | - | 50 W/m² | - |
| 1777727865 | 1.67° C | 89% | 1016.6 hPa | 0 mm | - | 54 W/m² | - |
* Rain latest hour (hover to see other rain measurements)
** Current wind speed in m/s (hover to see current wind gust speed)